Wetbulb
57.25 52.77 49.70 47.32 40.70 36.67 33.69 37.53 39.89 41.43 42.47 44.40 51.30 55.31 53.30 54.16 56.04 52.61 65.34 69.91 70.69 70.66 72.10 72.40 72.27 72.63 72.81 72.76 72.73 73.17 73.38 73.47 73.54 73.52 73.33 73.32 73.29 73.37 73.54 73.74 73.72 73.83 73.68 73.48 73.48 73.03 72.36 72.14 72.40
55.22 53.45 48.07 42.51 36.63 32.27 35.17 38.99 40.68 40.60 44.18 48.97 52.26 53.40 54.38 53.19 59.07 63.15 64.67 69.41 70.51 71.06 71.58 71.83 72.00 72.50 72.66 72.53 72.59 73.04 73.82 73.47 73.14 73.40 73.54 73.56 73.58 73.51 73.63 73.82 73.49 73.71 74.01 73.58 73.01 72.64 72.32 72.12 71.60
51.97 51.86 44.65 39.00 33.18 32.70 34.49 41.53 44.18 46.94 46.28 45.77 46.06 53.44 54.42 55.00 60.62 63.89 66.86 69.98 70.49 70.55 71.28 71.95 71.43 71.92 72.47 72.37 72.45 72.70 73.20 72.69 72.70 72.86 73.57 73.56 73.54 73.62 73.54 72.76 72.73 73.74 74.16 73.58 73.01 72.39 72.09 71.27 70.59
51.31 47.29 43.84 37.85 34.81 37.85 39.84 44.11 44.66 44.87 48.52 48.94 49.92 50.23 55.61 57.47 60.78 64.26 70.21 70.37 69.39 70.11 70.85 70.10 70.44 71.58 72.39 72.56 72.60 72.55 72.54 71.86 71.93 72.41 73.18 73.51 73.63 73.56 72.74 72.00 72.56 73.50 73.82 73.82 72.73 72.02 71.15 69.97 69.64
47.15 43.13 37.88 35.38 36.25 40.67 43.81 43.09 46.68 45.73 47.67 49.92 49.82 48.08 50.62 54.22 60.30 68.97 69.82 70.17 68.78 69.21 69.69 70.20 69.08 70.86 72.40 72.93 72.81 72.40 72.00 71.53 71.56 72.12 72.60 72.93 73.35 73.08 72.26 71.76 72.25 72.78 73.50 73.31 72.43 71.41 70.27 69.39 69.08
43.84 41.39 35.22 33.39 36.17 42.38 42.91 43.65 44.66 44.07 46.95 50.00 48.64 47.37 46.12 50.51 57.29 65.83 70.41 69.77 69.99 69.01 69.34 69.86 70.70 70.73 71.47 72.00 71.88 71.31 71.10 71.00 70.91 71.51 71.89 72.65 72.45 72.00 71.84 71.55 71.61 72.12 72.35 71.81 70.89 69.81 69.59 68.92 68.61
41.50 37.78 34.51 34.53 36.80 39.56 40.68 43.92 42.47 43.20 42.56 42.45 47.49 43.83 45.17 47.20 49.92 67.97 69.90 69.68 69.08 69.10 68.86 68.68 69.24 70.56 70.15 70.03 70.23 69.92 70.12 70.34 70.16 70.69 70.85 71.24 70.88 70.47 71.04 71.25 71.44 71.74 71.41 70.63 69.88 69.17 68.54 68.41 68.27
41.07 38.52 34.32 32.92 36.85 36.47 41.22 43.54 43.20 41.84 39.78 43.65 44.38 41.19 40.34 45.48 47.46 52.49 50.01 51.33 52.56 56.87 57.67 62.55 68.00 68.70 69.29 70.07 68.86 68.93 69.40 69.33 69.42 69.80 69.53 69.54 69.47 69.60 70.07 70.20 70.58 71.03 70.74 70.03 69.44 68.42 67.88 67.70 67.25
38.31 33.38 30.83 33.18 35.39 36.79 41.27 40.54 43.13 43.38 41.94 42.73 44.53 43.50 45.55 49.04 49.61 48.43 48.19 48.19 49.36 50.85 51.29 52.17 54.06 56.17 65.38 69.46 70.33 69.61 69.42 69.24 68.68 69.49 69.17 67.93 69.36 69.06 69.60 69.51 69.67 70.37 69.91 69.18 68.69 68.06 67.31 66.59 66.14
35.67 31.89 34.57 38.53 37.84 39.27 40.57 39.47 40.16 39.26 38.80 40.32 43.19 46.86 47.48 46.64 45.75 44.54 43.51 43.49 44.97 46.31 46.85 47.13 49.85 52.73 53.80 63.92 69.87 70.10 70.02 70.43 70.07 69.89 69.36 69.87 68.84 68.61 69.60 69.29 68.72 69.51 69.06 68.43 67.91 67.53 66.63 65.96 64.22
33.86 33.76 36.71 38.22 39.65 38.52 37.38 38.41 41.08 37.10 36.39 40.85 40.98 42.76 44.09 43.53 42.77 42.33 42.46 42.17 42.25 43.50 44.18 44.96 47.50 49.46 50.98 53.48 60.50 69.24 69.74 69.39 69.47 69.26 69.83 69.54 69.52 69.06 69.31 69.15 69.24 69.51 68.70 67.23 66.65 66.04 65.18 64.15 63.00
34.02 38.14 38.38 38.20 39.54 38.32 37.61 39.43 39.55 39.19 39.31 43.81 43.68 43.68 43.24 41.73 41.24 41.09 40.89 40.85 40.68 41.19 42.11 42.99 45.41 46.32 47.69 50.61 51.93 53.95 57.64 67.39 69.10 68.72 68.98 69.02 68.58 68.48 68.74 68.34 68.85 68.56 68.85 66.24 65.36 64.72 64.25 63.63 63.11
35.46 38.02 40.55 40.74 40.52 38.59 41.21 39.58 40.39 40.43 43.51 44.54 43.39 41.97 40.78 40.89 40.81 41.30 40.97 41.05 40.15 39.55 40.80 41.47 43.34 43.11 45.67 46.16 48.04 49.77 52.09 56.00 63.53 69.13 69.34 69.30 68.79 68.00 68.22 68.00 67.93 68.02 67.95 66.32 65.29 64.27 63.94 63.47 62.68
39.77 39.24 39.16 40.21 40.28 40.01 39.17 39.21 39.86 41.40 44.11 42.22 41.40 39.55 39.33 39.33 39.46 39.17 38.84 38.30 38.76 39.24 39.78 41.05 41.37 41.66 42.45 42.80 44.85 46.87 50.26 53.32 54.83 63.07 69.34 69.42 69.19 68.62 67.84 67.66 67.29 67.41 67.29 66.68 65.25 64.42 63.97 63.35 62.71
40.66 36.80 37.93 37.80 38.37 38.65 40.36 35.02 35.94 41.71 41.87 38.40 38.20 38.62 38.61 38.24 38.57 37.41 38.07 37.34 37.75 38.36 39.19 39.80 40.55 40.54 39.70 40.76 42.77 45.31 47.51 50.43 52.71 54.91 61.02 68.39 68.39 68.14 67.89 67.51 67.31 67.54 67.16 66.59 65.21 64.03 63.42 62.72 62.69
36.69 34.98 31.33 37.46 37.29 38.14 36.91 30.95 37.98 40.83 38.68 36.27 36.82 36.92 37.42 37.32 37.49 37.75 37.64 36.65 36.81 36.77 36.86 38.17 39.50 38.94 38.56 39.77 41.57 43.78 46.21 48.04 49.60 52.52 55.99 64.04 67.65 67.65 68.12 67.46 67.28 67.90 67.33 66.23 65.40 64.09 63.02 62.82 62.23
32.46 28.62 31.00 34.70 37.31 35.64 34.83 31.43 36.89 38.15 37.70 35.31 35.38 35.14 35.79 35.86 36.33 37.09 37.38 36.39 36.07 35.75 36.10 36.27 37.16 37.18 37.80 38.96 41.11 42.39 43.82 44.65 47.68 49.79 51.80 54.52 63.73 67.61 67.04 67.41 67.71 67.92 67.36 66.36 65.57 64.11 63.23 62.26 61.84
29.67 30.63 28.26 30.38 34.64 36.17 32.51 30.57 33.48 35.41 35.38 33.99 33.97 34.40 34.04 34.19 34.85 36.75 36.76 36.57 35.91 35.29 35.84 36.10 36.43 36.86 37.21 38.40 39.57 40.61 41.41 43.06 45.60 47.69 50.45 52.69 54.43 62.65 66.85 67.15 67.41 68.01 67.38 66.39 65.74 64.32 63.34 62.46 62.15
34.49 31.50 30.25 30.97 36.24 34.36 32.70 30.08 31.20 33.84 34.14 32.23 32.68 32.93 32.78 33.34 35.70 36.25 36.23 35.61 35.09 34.86 34.69 34.87 35.20 36.09 36.66 36.27 36.46 38.15 39.06 41.72 43.92 46.68 48.72 51.18 54.01 57.23 65.58 66.40 66.31 66.99 66.72 66.12 66.00 64.27 62.49 62.07 62.69
34.32 31.81 30.96 34.12 37.71 34.84 31.11 29.06 32.02 33.77 33.14 32.86 32.15 31.86 32.09 32.44 33.51 34.70 35.04 34.22 33.97 33.73 33.86 34.27 34.61 35.58 36.15 36.72 37.37 38.55 39.56 41.75 43.89 46.37 48.88 50.62 52.03 53.95 58.98 65.27 65.87 66.25 66.28 65.52 65.83 64.49 63.04 62.32 62.64
33.19 31.34 31.47 32.33 33.37 33.77 31.88 27.43 30.68 34.22 34.76 34.80 33.68 33.36 32.91 31.97 31.65 32.57 33.43 33.00 33.14 32.52 32.72 33.68 34.47 35.58 36.68 37.26 37.59 37.87 39.16 41.33 42.91 43.82 45.25 47.79 50.14 52.36 53.66 56.17 64.77 65.46 65.63 63.32 63.28 65.23 63.87 62.00 62.39
30.33 35.96 35.65 34.14 30.27 25.39 32.20 21.16 29.12 32.11 32.09 32.55 32.17 31.46 31.45 31.75 32.27 32.40 32.01 32.23 32.40 32.47 33.20 33.59 34.92 35.07 36.76 36.81 35.97 35.39 35.46 36.63 39.44 41.68 44.36 46.60 48.56 50.34 53.04 54.63 59.87 64.57 65.02 64.50 64.11 65.74 64.92 63.81 61.62
33.43 37.89 35.31 33.90 28.94 26.76 28.16 24.33 26.18 31.69 30.15 30.23 30.83 31.35 31.32 31.32 32.52 31.12 32.41 33.19 33.57 33.09 32.31 33.94 35.12 35.12 36.08 36.36 36.30 35.70 35.14 37.02 39.68 40.75 43.14 44.60 46.46 48.62 50.78 54.73 58.81 62.54 63.51 63.60 64.31 62.61 64.73 64.25 63.20
38.72 35.74 34.35 32.63 29.41 20.28 28.88 27.08 23.00 26.27 29.02 30.34 31.33 30.88 33.43 33.40 33.34 31.16 32.84 33.34 33.03 33.54 33.12 33.52 33.36 33.84 35.05 34.86 35.27 34.32 34.64 36.09 37.07 38.33 39.57 42.86 44.36 46.02 48.67 52.74 56.40 60.55 62.29 61.69 62.41 61.11 62.16 63.58 63.99
35.58 30.97 22.56 22.29 21.22 21.86 31.46 27.46 25.06 29.60 31.07 30.98 30.47 30.82 31.55 33.46 32.87 30.41 30.74 31.12 31.40 31.19 31.69 32.47 32.47 32.43 33.60 33.50 34.09 34.90 35.66 35.83 35.98 37.20 38.28 39.52 42.31 44.43 46.54 50.76 54.70 56.84 59.15 61.10 61.20 61.57 60.04 60.13 59.74
32.38 31.59 24.56 20.79 20.98 23.14 31.02 23.63 25.20 32.79 33.48 33.39 33.16 31.79 31.34 30.62 32.25 31.19 29.31 30.18 29.61 29.95 30.45 31.40 31.32 32.13 32.54 32.95 33.12 34.01 35.38 35.75 36.31 36.69 37.83 39.15 40.47 42.95 45.78 49.13 52.43 53.48 56.08 57.78 61.14 60.59 60.75 60.79 59.01
33.13 28.94 35.20 28.85 27.90 23.16 24.19 27.10 31.77 32.33 31.41 32.65 31.28 29.60 27.75 29.84 30.89 30.99 28.98 28.74 28.40 28.13 30.18 31.21 31.10 32.00 31.76 32.20 33.20 34.09 34.31 35.35 35.26 36.17 37.67 37.82 39.10 41.92 43.97 47.30 48.03 49.63 52.94 56.84 59.39 60.21 59.53 59.34 58.21
36.85 38.31 29.58 28.98 23.05 21.21 23.08 23.58 22.80 28.40 28.43 30.61 25.05 25.58 26.76 28.57 28.62 30.80 27.28 27.56 27.85 28.10 30.76 31.38 31.72 31.26 31.56 32.18 32.91 33.23 34.31 34.77 34.65 35.48 35.74 35.48 37.13 38.99 42.58 42.22 41.34 42.06 49.50 55.66 57.69 57.86 56.96 57.12 58.25
32.89 31.62 32.58 32.43 27.43 22.12 19.17 19.79 26.43 28.73 28.99 28.23 26.79 23.89 25.42 24.52 25.53 26.82 23.93 25.48 25.99 26.92 30.37 30.53 30.95 30.66 30.77 32.05 32.39 32.95 33.72 33.73 33.94 33.92 34.37 34.18 35.98 36.65 37.85 38.82 39.10 39.88 44.57 47.42 50.39 49.57 56.36 59.21 57.06
36.90 33.94 33.36 26.74 25.91 26.48 20.89 17.15 31.95 29.69 29.50 29.44 28.02 26.15 22.73 25.33 22.69 24.02 24.56 23.45 24.74 25.04 28.27 29.72 30.53 30.75 31.33 32.54 32.56 32.52 32.60 32.54 31.93 32.62 33.16 33.65 34.21 34.75 35.09 34.84 36.89 37.01 39.29 40.03 40.07 42.57 44.84 51.72 54.18
MSLP
1012.70 1012.17 1012.19 1012.56 1014.17 1014.46 1013.90 1012.65 1011.37 1010.18 1009.00 1008.37 1008.01 1008.23 1008.92 1009.48 1009.89 1010.51 1009.28 1009.29 1009.40 1009.51 1009.58 1010.04 1010.45 1010.49 1010.56 1010.85 1011.13 1011.05 1011.07 1011.12 1011.35 1011.48 1011.59 1011.85 1012.20 1012.58 1012.76 1012.83 1012.95 1013.02 1013.27 1013.43 1013.59 1013.67 1013.80 1014.05 1014.09
1012.67 1012.27 1012.61 1013.57 1014.61 1014.87 1013.72 1012.50 1011.23 1010.24 1009.26 1008.86 1008.52 1008.80 1009.02 1009.81 1009.76 1009.79 1009.54 1009.64 1009.91 1010.08 1010.23 1010.47 1010.69 1010.78 1010.86 1010.89 1011.28 1011.40 1011.43 1011.48 1011.66 1011.88 1012.00 1012.08 1012.32 1012.76 1012.94 1013.10 1013.19 1013.17 1013.29 1013.44 1013.73 1013.87 1014.00 1014.16 1014.28
1012.62 1012.62 1013.76 1014.56 1015.19 1015.07 1014.05 1012.24 1011.27 1009.84 1008.78 1008.87 1008.98 1009.16 1009.57 1010.34 1010.24 1009.95 1009.67 1009.96 1010.21 1010.48 1010.56 1010.72 1010.93 1011.06 1011.12 1011.16 1011.31 1011.68 1011.75 1011.90 1011.97 1012.24 1012.37 1012.30 1012.50 1012.90 1013.15 1013.25 1013.32 1013.43 1013.50 1013.56 1013.80 1014.04 1014.22 1014.31 1014.41
1012.88 1013.36 1014.85 1014.93 1015.15 1014.35 1013.52 1012.12 1010.69 1009.81 1009.19 1009.11 1009.37 1010.24 1010.48 1010.75 1010.39 1010.05 1009.93 1010.11 1010.43 1010.71 1010.65 1010.88 1011.15 1011.14 1011.34 1011.46 1011.52 1011.96 1012.10 1012.16 1012.39 1012.52 1012.54 1012.63 1012.79 1013.06 1013.30 1013.38 1013.45 1013.51 1013.67 1013.80 1013.93 1014.12 1014.39 1014.52 1014.61
1013.56 1014.54 1015.41 1015.64 1015.17 1014.14 1013.06 1012.01 1010.83 1010.57 1010.40 1010.15 1009.87 1011.46 1011.44 1011.37 1011.09 1011.00 1010.78 1010.79 1010.85 1011.23 1011.29 1011.37 1011.59 1011.66 1011.68 1011.83 1011.91 1012.17 1012.37 1012.45 1012.68 1012.73 1012.76 1012.87 1013.07 1013.23 1013.42 1013.49 1013.56 1013.63 1013.69 1013.90 1014.15 1014.32 1014.48 1014.61 1014.80
1014.48 1015.37 1015.96 1015.85 1015.15 1013.98 1013.01 1012.22 1011.32 1011.46 1011.41 1011.20 1011.14 1011.68 1012.40 1012.40 1011.89 1011.81 1011.55 1011.29 1011.33 1011.51 1011.62 1011.65 1011.89 1012.05 1012.08 1012.07 1012.14 1012.39 1012.55 1012.71 1012.88 1012.91 1012.91 1012.97 1013.24 1013.32 1013.38 1013.46 1013.58 1013.68 1013.84 1014.00 1014.22 1014.49 1014.63 1014.75 1014.77
1014.80 1015.95 1015.94 1015.67 1014.84 1013.90 1013.19 1012.32 1012.36 1012.05 1012.09 1011.94 1011.99 1012.66 1013.43 1012.85 1013.06 1012.80 1012.96 1012.92 1012.82 1012.62 1012.74 1012.74 1012.65 1012.46 1012.22 1012.07 1012.03 1012.11 1012.37 1012.56 1012.72 1012.85 1012.92 1013.05 1013.33 1013.45 1013.46 1013.40 1013.45 1013.66 1013.86 1014.05 1014.32 1014.60 1014.71 1014.86 1014.77
1014.76 1015.79 1015.90 1015.39 1014.66 1014.03 1013.35 1012.73 1012.57 1012.40 1012.45 1012.41 1012.52 1013.83 1014.74 1014.92 1014.50 1013.97 1014.06 1014.37 1014.42 1014.33 1014.52 1014.04 1013.52 1013.43 1013.27 1013.13 1012.90 1012.54 1012.12 1012.19 1012.64 1012.89 1013.00 1013.13 1013.38 1013.52 1013.58 1013.62 1013.57 1013.64 1013.79 1013.96 1014.19 1014.54 1014.70 1014.92 1014.99
1014.60 1015.72 1016.18 1015.22 1014.39 1013.75 1013.41 1013.12 1012.85 1012.90 1013.00 1013.33 1013.87 1015.29 1017.09 1016.66 1015.80 1015.44 1015.52 1015.71 1015.55 1015.59 1015.73 1015.51 1015.05 1014.66 1013.89 1013.46 1013.15 1013.08 1013.02 1012.85 1012.68 1012.77 1012.93 1013.09 1013.20 1013.33 1013.39 1013.53 1013.64 1013.66 1013.76 1013.98 1014.21 1014.47 1014.71 1014.80 1014.99
1014.96 1015.74 1015.46 1014.45 1013.98 1013.64 1013.46 1013.41 1013.42 1013.47 1014.22 1014.52 1015.97 1017.20 1017.50 1017.44 1017.28 1017.50 1017.87 1017.99 1017.76 1017.43 1017.10 1016.91 1016.18 1015.67 1015.06 1013.95 1013.35 1013.27 1012.95 1013.01 1013.06 1012.98 1012.94 1013.10 1013.11 1013.22 1013.23 1013.16 1013.37 1013.62 1013.78 1013.96 1014.10 1014.29 1014.59 1014.81 1014.91
1014.96 1015.25 1014.76 1014.06 1013.91 1013.60 1013.67 1013.72 1013.92 1014.29 1015.44 1016.80 1017.76 1018.95 1019.01 1018.72 1018.61 1018.88 1019.38 1019.57 1019.56 1019.26 1018.66 1018.01 1017.16 1016.71 1016.14 1015.48 1014.52 1013.57 1013.24 1012.87 1012.88 1013.01 1012.91 1012.69 1012.78 1012.92 1013.19 1013.46 1013.48 1013.51 1013.73 1014.00 1014.13 1014.23 1014.38 1014.66 1014.87
1015.16 1014.60 1014.49 1014.23 1013.92 1013.83 1014.05 1014.17 1014.76 1016.25 1018.70 1018.55 1018.75 1019.47 1019.74 1019.29 1019.95 1020.34 1020.42 1020.51 1020.20 1019.76 1019.41 1018.86 1018.05 1017.59 1016.97 1016.56 1016.06 1015.59 1014.59 1013.54 1012.95 1012.64 1012.80 1012.76 1012.39 1012.54 1012.74 1012.86 1013.07 1013.21 1013.31 1013.70 1013.95 1014.11 1014.12 1014.20 1014.34
1015.48 1014.92 1014.55 1014.33 1013.95 1013.75 1014.15 1015.13 1016.46 1018.49 1019.39 1019.18 1019.31 1019.57 1020.08 1020.67 1021.10 1021.22 1021.20 1021.06 1020.94 1020.33 1019.75 1019.26 1018.78 1018.38 1017.81 1017.30 1016.68 1016.04 1015.38 1014.64 1013.68 1012.43 1012.18 1012.30 1012.45 1011.99 1012.10 1012.31 1012.57 1012.70 1012.85 1013.00 1013.56 1013.84 1013.94 1014.04 1014.02
1015.72 1015.30 1014.80 1014.16 1014.04 1013.82 1014.39 1015.74 1016.17 1019.49 1020.10 1019.71 1019.91 1020.63 1021.36 1021.74 1021.83 1021.65 1021.19 1020.98 1020.77 1020.86 1020.31 1019.88 1019.29 1018.99 1018.51 1017.91 1017.23 1016.45 1015.79 1015.00 1014.25 1013.11 1011.73 1011.67 1011.53 1011.70 1011.51 1011.80 1011.94 1012.21 1012.36 1012.46 1012.56 1013.24 1013.60 1013.74 1013.71
1015.86 1015.67 1014.85 1014.04 1013.86 1013.73 1014.35 1017.67 1019.62 1020.53 1021.04 1020.62 1021.05 1021.65 1022.17 1022.50 1022.39 1022.29 1022.50 1022.30 1022.03 1021.64 1021.27 1020.55 1019.78 1019.33 1018.70 1017.94 1017.35 1016.63 1016.01 1015.38 1014.52 1013.66 1012.51 1011.27 1010.86 1010.73 1011.08 1011.16 1011.46 1011.24 1011.48 1012.02 1012.13 1012.48 1013.14 1013.50 1013.69
1016.51 1016.10 1015.60 1014.48 1014.20 1014.23 1014.98 1019.26 1020.88 1021.47 1021.78 1021.92 1022.33 1022.66 1022.85 1023.06 1023.28 1023.36 1023.38 1023.17 1022.72 1022.16 1021.49 1021.06 1020.41 1019.69 1019.08 1018.32 1017.58 1016.75 1016.05 1015.52 1014.76 1013.87 1012.83 1011.36 1010.31 1009.85 1010.43 1010.60 1010.75 1010.45 1010.50 1011.34 1011.81 1012.01 1012.68 1012.92 1013.16
1017.05 1016.74 1016.01 1014.88 1014.48 1014.92 1016.32 1020.18 1021.84 1022.32 1022.48 1022.89 1023.46 1023.65 1023.77 1023.85 1023.93 1023.94 1023.79 1023.66 1023.32 1022.85 1022.13 1021.30 1020.52 1019.83 1019.22 1018.42 1017.74 1017.03 1016.23 1015.62 1014.78 1014.00 1013.16 1012.02 1010.53 1009.38 1009.35 1009.74 1009.78 1009.82 1010.04 1010.45 1011.25 1011.55 1012.10 1012.50 1012.50
1017.05 1016.76 1016.25 1015.71 1015.48 1016.06 1018.33 1021.05 1022.43 1022.94 1023.20 1023.77 1024.23 1024.48 1024.60 1024.51 1024.41 1024.28 1024.17 1024.08 1023.85 1023.39 1022.76 1021.97 1021.05 1020.17 1019.34 1018.62 1017.92 1017.26 1016.56 1015.48 1014.69 1013.92 1013.04 1012.20 1011.28 1009.69 1008.67 1008.76 1008.85 1009.14 1009.26 1009.64 1010.24 1010.95 1011.32 1011.81 1011.77
1016.85 1016.63 1016.37 1015.91 1015.98 1017.18 1019.62 1021.68 1023.00 1023.58 1023.98 1024.58 1024.94 1024.89 1024.76 1024.78 1024.81 1024.55 1024.30 1024.07 1023.75 1023.38 1022.99 1022.44 1021.78 1020.94 1020.05 1018.92 1018.00 1017.20 1016.55 1015.68 1014.45 1013.53 1012.80 1012.00 1010.93 1009.87 1008.66 1008.01 1007.89 1008.50 1008.20 1008.29 1009.13 1009.98 1010.64 1011.24 1011.20
1016.67 1016.52 1016.44 1016.25 1016.28 1017.72 1020.57 1022.29 1023.27 1023.92 1024.53 1024.95 1025.23 1025.42 1025.32 1024.64 1024.04 1023.92 1023.97 1023.95 1023.56 1023.18 1022.84 1022.26 1022.05 1021.54 1020.67 1019.81 1019.04 1018.25 1017.24 1016.09 1014.81 1013.46 1012.34 1011.69 1010.97 1009.93 1008.82 1007.70 1007.33 1007.01 1006.89 1006.33 1007.77 1008.88 1009.34 1010.08 1010.28
1016.44 1016.25 1016.39 1016.51 1016.94 1018.08 1020.14 1022.25 1023.04 1023.81 1024.52 1025.04 1025.57 1025.92 1025.80 1025.50 1025.28 1024.93 1024.58 1024.47 1024.23 1023.93 1023.63 1023.05 1022.46 1021.73 1020.81 1019.98 1018.99 1018.17 1017.34 1016.14 1014.63 1013.61 1012.46 1011.36 1010.79 1009.76 1009.03 1007.98 1006.72 1006.19 1006.04 1005.40 1005.96 1007.23 1007.68 1008.37 1009.19
1016.10 1015.76 1016.08 1016.63 1017.63 1018.84 1019.46 1021.28 1022.47 1023.32 1024.46 1025.32 1025.77 1025.84 1025.92 1026.05 1026.06 1025.95 1025.48 1024.98 1024.76 1024.35 1023.81 1023.18 1022.51 1021.80 1020.93 1020.18 1019.36 1018.55 1017.75 1016.46 1015.58 1014.26 1012.69 1011.36 1010.48 1009.55 1008.45 1007.60 1006.76 1005.66 1005.21 1005.38 1005.00 1005.46 1005.75 1006.87 1007.85
1015.44 1015.72 1016.27 1016.92 1018.10 1018.95 1019.66 1021.27 1022.12 1023.39 1024.30 1025.16 1025.80 1026.13 1026.30 1026.54 1026.51 1026.67 1026.41 1025.99 1025.46 1024.80 1024.20 1023.45 1022.60 1022.01 1021.39 1020.78 1019.89 1018.91 1018.13 1017.20 1015.77 1014.54 1012.78 1011.56 1010.33 1009.42 1008.35 1007.05 1006.19 1005.33 1004.75 1004.52 1004.69 1004.36 1005.31 1005.64 1006.22
1014.91 1016.02 1016.98 1017.76 1018.83 1019.33 1019.49 1021.15 1022.30 1023.64 1024.16 1024.91 1025.61 1026.12 1026.27 1026.44 1026.61 1026.98 1026.79 1026.36 1025.71 1025.10 1024.68 1024.05 1023.29 1022.68 1021.85 1021.12 1020.00 1019.22 1018.43 1017.28 1015.85 1014.57 1013.26 1011.72 1010.70 1009.15 1007.99 1006.87 1005.80 1004.97 1004.16 1003.94 1004.11 1004.94 1004.33 1003.96 1005.52
1015.26 1016.43 1017.84 1018.95 1019.56 1019.08 1019.08 1020.82 1022.06 1023.67 1024.43 1025.06 1025.52 1026.03 1026.46 1026.49 1026.83 1027.37 1026.95 1026.55 1026.16 1025.65 1024.92 1024.41 1023.68 1022.63 1021.90 1021.13 1019.99 1019.32 1018.44 1017.16 1016.09 1014.80 1013.50 1012.29 1010.87 1009.32 1007.76 1006.84 1005.49 1004.49 1003.61 1003.24 1003.20 1003.61 1003.90 1004.13 1005.36
1015.33 1015.96 1016.84 1017.72 1018.83 1019.15 1019.88 1021.08 1022.32 1023.68 1024.49 1025.03 1025.53 1026.15 1026.67 1026.98 1027.28 1027.33 1027.27 1027.03 1026.82 1026.09 1025.44 1024.82 1023.73 1022.77 1022.02 1021.12 1020.06 1019.36 1018.28 1017.06 1016.13 1015.00 1013.83 1012.72 1011.45 1009.96 1008.33 1006.66 1005.49 1004.47 1003.42 1002.65 1002.45 1002.91 1003.28 1003.88 1004.40
1014.83 1015.50 1016.08 1017.40 1018.77 1019.80 1020.42 1021.99 1023.05 1023.90 1024.50 1025.08 1025.84 1026.55 1027.04 1027.23 1027.52 1027.68 1027.58 1027.31 1026.95 1026.14 1025.76 1025.05 1024.10 1023.17 1022.32 1021.42 1020.11 1019.04 1018.12 1017.08 1016.04 1015.08 1014.20 1013.08 1011.66 1010.04 1008.30 1006.84 1005.66 1004.47 1003.08 1002.12 1001.64 1001.81 1002.02 1002.21 1002.64
1013.30 1014.62 1015.99 1017.26 1018.83 1019.99 1020.90 1021.93 1022.63 1023.99 1024.56 1025.27 1026.21 1026.97 1027.56 1027.92 1027.91 1027.78 1027.90 1027.58 1027.09 1026.58 1026.11 1025.47 1024.63 1023.51 1022.56 1021.73 1020.34 1019.28 1018.25 1017.12 1016.31 1015.35 1014.13 1013.08 1011.70 1010.15 1008.31 1007.29 1006.34 1005.19 1003.29 1001.92 1000.94 1000.96 1001.22 1001.14 1001.77
1013.52 1014.19 1015.43 1016.51 1018.23 1019.63 1021.36 1022.15 1022.27 1023.51 1024.71 1025.56 1026.63 1027.41 1027.86 1028.29 1028.38 1028.59 1028.36 1027.85 1027.32 1026.94 1026.37 1025.75 1024.85 1023.59 1022.79 1021.86 1020.58 1019.74 1018.35 1017.56 1016.83 1015.86 1014.60 1013.39 1011.90 1010.49 1009.29 1008.22 1007.02 1005.79 1003.92 1002.71 1001.17 1000.52 1000.34 1000.34 1000.21
1012.89 1013.72 1014.90 1016.22 1018.45 1019.81 1021.36 1022.33 1022.81 1023.78 1024.88 1025.78 1026.82 1027.50 1028.08 1028.53 1028.89 1028.78 1028.50 1028.00 1027.52 1027.18 1026.54 1025.80 1024.97 1023.97 1023.24 1022.25 1021.24 1020.30 1019.25 1018.32 1017.52 1016.19 1015.14 1013.94 1012.35 1011.52 1010.60 1009.23 1007.76 1007.14 1005.86 1003.90 1002.93 1001.50 1000.40 1000.29 999.97
Wind_Speed
8 7 2 5 6 5 3 4 4 7 4 3 3 8 8 4 4 5 4 4 3 6 6 7 8 9 9 7 6 8 11 13 14 16 17 17 15 14 13 13 12 12 12 13 12 12 10 9 10
5 3 5 3 6 4 5 5 6 4 4 6 6 4 7 5 3 1 4 6 6 5 5 5 7 7 7 9 7 6 9 11 12 13 15 16 16 14 13 12 11 11 12 13 12 11 11 10 9
4 3 5 5 3 2 3 6 7 10 7 2 4 6 4 3 3 1 4 8 7 6 5 5 5 6 7 8 8 6 7 8 10 10 13 14 15 14 13 11 11 10 11 13 12 11 10 10 10
3 5 5 6 2 2 3 12 6 4 6 9 6 7 4 3 2 1 5 8 7 5 5 6 5 7 7 7 7 6 6 7 8 9 10 12 13 13 12 11 10 10 10 11 12 10 9 9 10
5 4 4 4 2 5 4 7 8 8 5 5 4 4 4 8 8 7 5 5 6 5 3 4 1 3 4 5 5 5 6 6 7 7 8 9 11 12 11 11 10 10 10 10 10 9 9 9 9
5 3 5 2 2 5 5 6 6 8 6 7 8 5 4 7 6 7 4 5 5 6 4 3 3 3 5 5 5 5 5 6 7 7 8 9 9 10 12 11 10 10 10 9 10 9 9 9 9
6 4 4 4 2 3 5 6 5 4 5 8 5 4 2 11 9 8 10 10 10 9 8 6 4 4 3 6 8 9 7 8 8 9 8 8 8 9 10 11 11 10 10 10 9 10 8 9 9
6 5 2 1 3 2 6 3 4 7 3 4 3 6 4 11 14 16 18 20 20 20 19 17 9 8 6 7 9 7 10 10 8 8 7 8 8 8 9 9 10 11 11 10 10 10 9 9 9
3 6 1 3 5 3 2 3 6 1 4 4 4 11 10 15 17 21 18 20 18 17 18 17 17 17 12 6 5 7 8 6 7 7 8 6 4 6 8 8 9 11 10 10 10 10 10 9 8
5 5 9 4 3 3 3 2 2 3 5 3 13 16 17 17 18 19 18 15 18 19 19 17 16 16 17 11 5 4 4 5 5 5 5 6 5 5 7 8 11 10 10 10 10 10 10 8 4
2 5 4 3 2 3 2 2 1 2 4 9 10 11 13 17 19 17 15 13 12 12 12 17 15 16 15 13 12 5 3 3 3 9 9 9 7 5 5 4 5 5 8 4 6 6 4 6 4
3 4 3 1 3 2 2 3 3 12 6 11 14 12 14 20 17 15 14 13 14 14 14 15 14 14 14 10 8 8 8 8 5 6 10 8 6 8 7 6 8 8 6 6 5 4 5 6 7
2 4 6 4 4 2 3 4 13 12 9 13 16 19 19 16 15 13 13 12 12 14 15 16 14 14 13 12 9 8 9 8 13 8 9 8 8 9 8 8 9 8 7 8 7 6 6 6 6
5 5 8 6 7 3 2 4 9 5 7 16 17 17 16 16 16 13 18 18 19 16 16 15 14 13 12 11 11 9 8 9 10 11 10 14 11 10 9 9 10 9 8 10 8 8 8 7 6
6 7 8 4 2 6 8 11 8 6 9 16 15 13 13 15 15 17 14 15 16 14 15 15 16 15 15 13 11 9 8 9 9 10 15 15 15 13 11 9 10 11 10 13 8 7 6 5 5
5 3 5 5 1 4 3 4 6 7 8 13 13 12 12 14 15 13 13 13 14 14 16 15 14 14 15 14 11 9 9 10 9 10 11 17 15 15 14 10 11 12 11 10 9 9 8 8 7
2 3 3 6 5 2 6 5 5 8 9 12 10 10 11 10 13 13 13 13 14 13 16 17 17 17 17 14 10 11 13 10 10 10 10 16 17 15 14 12 13 13 11 11 10 9 10 10 8
4 3 3 3 5 9 10 7 4 6 9 9 9 8 9 10 12 12 13 12 12 11 13 14 14 17 18 11 10 9 10 10 10 11 11 16 14 19 14 13 11 12 12 11 10 13 10 10 10
2 2 3 3 5 6 6 6 4 4 7 7 7 8 11 11 9 10 11 12 12 13 15 15 16 17 14 13 14 14 13 13 13 12 16 17 14 17 15 13 15 14 13 15 15 13 11 11 9
5 6 5 5 3 7 4 4 3 3 4 6 8 9 11 14 17 18 18 17 18 18 18 18 17 17 14 11 12 12 13 11 13 13 15 15 17 17 16 14 13 16 15 16 18 16 13 12 11
5 6 5 6 1 6 9 1 4 3 6 6 7 6 9 12 15 17 18 17 16 17 17 15 16 17 15 18 11 11 13 10 10 12 14 13 18 18 16 17 15 15 15 10 15 16 20 14 11
6 7 6 6 4 5 5 6 6 6 4 3 5 7 9 12 12 15 17 18 17 16 15 16 16 19 17 19 15 17 14 14 12 13 13 16 20 19 18 15 15 14 11 15 17 21 17 14 13
8 6 7 5 3 1 1 3 2 8 5 2 5 8 7 7 11 13 15 16 16 15 16 16 17 17 17 16 15 12 15 13 12 12 18 16 17 19 19 17 14 12 10 12 17 12 19 13 13
8 5 5 5 4 3 9 7 5 4 2 1 2 4 10 11 12 10 13 14 14 15 15 16 19 17 17 17 16 18 18 17 14 14 14 12 13 15 17 16 14 12 10 10 10 12 16 11 13
5 7 1 1 0 7 3 6 1 5 2 3 2 4 5 8 10 8 13 14 14 17 17 15 18 18 19 18 17 17 17 17 17 15 12 15 12 13 17 17 14 10 6 9 9 11 15 19 21
7 7 6 6 5 3 2 5 1 4 6 6 5 6 6 6 8 10 9 11 12 14 16 16 20 18 20 19 18 17 16 11 11 14 13 11 12 12 18 16 15 16 15 8 8 10 13 17 16
5 6 6 4 3 2 1 2 4 5 4 3 6 6 6 6 6 9 7 10 12 13 15 15 19 17 19 20 17 16 16 16 14 16 14 11 14 13 17 16 16 18 17 14 8 9 11 14 17
7 7 4 1 4 5 2 3 4 10 5 1 4 5 4 5 5 7 6 9 10 11 12 14 16 17 19 19 17 16 17 17 16 15 17 17 16 17 16 15 15 18 17 16 12 10 11 14 16
4 3 3 5 4 4 1 6 4 7 5 3 2 3 3 5 5 5 5 6 7 8 11 13 14 17 18 17 18 18 17 18 16 15 17 18 18 19 20 18 18 19 15 10 5 2 10 18 17
7 6 5 5 4 2 3 7 2 7 6 6 5 3 2 2 4 4 6 7 9 10 11 12 13 14 16 15 16 16 16 16 17 17 19 19 19 20 20 22 19 18 17 10 8 4 3 3 2
Wind_Direction
317 314 107 44 51 63 301 281 310 319 340 359 355 107 117 84 50 141 268 78 103 125 131 152 168 157 143 129 123 123 129 130 131 131 130 130 129 130 130 131 134 133 133 128 124 126 123 118 112
316 323 38 84 81 51 282 279 350 239 279 127 106 66 46 49 55 26 346 47 97 110 106 132 166 161 148 137 139 141 139 137 137 137 137 136 135 137 137 137 138 136 138 134 132 132 127 119 119
297 37 75 86 104 119 303 274 296 295 318 256 85 52 54 61 15 14 313 101 106 111 124 140 155 165 160 154 154 163 146 143 141 145 146 140 139 141 140 139 139 139 141 139 137 136 131 127 125
23 13 32 75 171 234 255 310 277 281 358 23 119 55 34 0 337 293 74 118 117 138 145 151 174 167 175 170 158 171 161 154 154 155 150 149 147 146 143 142 142 142 145 143 143 143 135 137 137
33 52 59 74 287 279 309 333 358 49 46 346 349 50 56 353 338 14 74 85 111 108 107 134 81 186 176 169 161 180 186 176 175 167 159 157 158 153 150 151 150 146 146 144 143 147 145 145 146
41 89 70 181 299 296 322 352 352 45 15 16 52 94 43 314 22 346 52 89 87 118 121 114 176 206 194 190 185 195 204 195 194 187 176 170 171 164 163 161 159 156 151 149 150 155 159 153 163
107 79 180 141 214 16 337 326 28 357 35 2 319 79 62 3 359 36 26 28 24 27 22 7 339 296 249 209 195 189 200 205 203 201 191 184 184 178 176 171 167 165 162 162 163 163 174 161 175
105 90 119 161 163 99 327 29 326 34 30 290 44 36 13 358 14 37 39 35 29 28 24 3 349 346 342 322 307 253 207 198 198 206 201 192 193 190 187 182 177 173 173 174 175 173 180 171 182
113 66 162 227 140 146 307 61 329 345 12 65 47 42 49 31 38 39 25 24 18 19 18 12 14 8 343 306 299 303 294 264 214 204 206 190 196 197 192 194 192 183 181 184 185 185 183 180 184
88 111 212 213 169 147 152 145 251 19 12 358 81 28 32 34 43 48 37 22 17 13 6 5 5 4 358 349 313 295 284 284 263 232 205 212 208 201 201 195 193 189 188 189 193 194 190 177 179
114 178 197 296 310 110 165 118 276 328 72 23 91 72 39 41 38 38 39 32 17 7 6 1 360 1 1 356 351 327 296 247 250 254 233 216 213 201 198 208 203 191 193 197 200 199 194 190 181
339 238 87 226 337 76 160 144 18 44 99 90 83 81 61 48 40 30 26 24 11 8 7 1 4 0 357 352 352 341 344 317 269 240 243 237 212 208 205 205 204 202 195 194 196 203 201 206 197
233 331 323 287 250 228 167 75 103 73 91 83 75 58 49 47 40 32 20 22 16 11 4 4 3 1 355 349 341 339 337 326 324 259 235 224 235 212 200 208 206 205 199 192 197 203 205 214 215
307 283 278 270 198 230 212 102 83 62 67 66 60 57 50 41 31 26 20 10 9 4 2 358 359 359 349 345 340 330 322 318 317 311 255 233 225 224 212 204 204 207 206 207 190 199 205 214 212
302 320 322 302 250 191 151 26 46 35 48 59 50 52 48 37 30 29 16 6 359 357 355 357 354 355 350 344 339 330 321 317 311 305 306 276 252 232 219 213 214 206 202 211 200 191 199 209 221
356 16 343 299 168 340 80 142 28 22 54 50 42 36 36 34 26 21 16 5 359 352 355 353 353 351 349 341 335 331 325 320 309 303 305 300 269 235 229 217 219 210 201 208 205 195 199 210 208
359 250 234 320 9 106 63 128 35 16 54 51 34 30 26 19 20 16 12 5 358 353 351 350 351 352 347 339 336 331 326 320 311 308 303 303 303 267 242 230 221 211 207 204 207 202 200 207 208
193 202 265 273 311 43 70 109 56 35 57 48 29 23 21 19 12 7 8 6 359 355 354 352 352 351 346 340 336 333 326 322 317 308 302 304 300 294 253 234 236 214 210 210 205 209 200 210 206
300 237 246 263 268 86 99 118 120 86 63 43 25 19 17 10 354 3 6 3 3 5 0 359 353 350 348 346 342 339 333 327 319 312 306 301 296 290 275 241 230 218 215 216 214 209 200 213 196
225 191 234 277 267 100 150 107 105 81 72 60 26 16 7 360 3 4 3 1 1 356 357 357 353 350 347 347 335 329 325 315 314 313 310 316 306 312 311 274 244 231 227 212 219 204 207 219 197
219 179 200 211 219 68 119 193 192 115 109 62 45 21 16 13 1 355 355 356 354 356 352 349 345 344 349 346 335 331 322 318 316 323 312 312 308 304 303 301 282 250 221 232 238 219 205 206 208
201 208 189 167 129 234 179 276 197 175 146 60 24 20 13 11 5 356 352 351 351 345 346 346 346 349 348 348 342 338 328 324 318 312 306 311 312 308 298 291 286 268 253 234 214 226 207 202 207
212 155 164 153 161 24 245 328 26 157 197 38 21 14 7 14 4 358 352 348 345 345 344 344 345 346 341 341 341 337 328 320 318 314 314 310 310 311 308 299 290 269 261 245 250 232 238 220 204
149 118 54 52 103 290 191 175 205 204 184 97 41 19 7 3 3 6 351 347 346 348 345 345 346 340 342 341 344 343 334 326 324 321 313 314 314 307 305 298 297 278 253 237 225 212 238 262 235
104 104 265 11 243 232 237 185 90 164 151 141 78 35 3 14 5 354 355 353 348 346 346 343 344 340 342 342 345 342 332 332 326 323 318 313 311 315 310 308 310 303 270 237 203 206 229 250 265
189 164 168 207 195 231 32 231 226 148 165 161 97 59 25 12 4 3 348 347 342 346 347 342 345 338 342 342 348 344 337 336 326 325 324 315 316 314 306 302 297 289 285 256 211 206 210 221 244
198 199 173 92 24 64 157 147 201 166 172 98 67 38 8 5 6 1 346 354 346 351 343 343 345 339 344 341 345 344 343 339 336 334 331 327 326 320 316 307 298 290 272 264 226 187 193 205 233
154 165 122 53 204 224 239 251 228 190 208 82 31 20 348 358 355 2 352 352 347 348 339 341 343 346 345 341 348 346 343 345 342 338 343 344 338 340 345 339 331 310 293 267 234 209 202 201 211
141 186 81 120 145 180 179 258 205 162 165 166 152 250 306 335 332 342 325 341 331 340 347 343 339 351 351 345 351 346 348 345 346 344 351 351 351 356 354 349 345 327 311 330 267 207 217 224 218
196 171 150 148 188 86 132 271 110 144 160 156 158 195 259 286 310 342 347 341 347 346 348 344 343 348 347 342 348 349 352 352 351 351 353 355 4 3 353 353 353 346 329 349 342 10 293 193 335